STARLINK-1523 (46028 NORAD) Tracking and Keplerian Element Data

This shows tracking and keplerian element data for the satellite.

Feedback or suggestion? Click here.




ElementValue
Catalog46028
NameSTARLINK-1523
Epoch Orbit1825
Epoch Day335.77907252
Epoch Year2020
RAAN127.8548
Inclination53.007
Eccentricity0.0002369
Argument of Perigee94.869
Mean Anonmoly265.2568
Mean Motion15.05591112
Decay Rate1.193E-05
L11 46028U 20055B 20335.77907252 .00001193 00000-0 10102-3 0 9995
L22 46028 53.0070 127.8548 0002369 94.8690 265.2568 15.05591112 18258

Live tracking and technical data element details for STARLINK-1523 (NORAD 46028). STARLINK-1523 can be tracked NOW for your location showing map with azimuth and elevation plus other details from your city location.

Track the satellite on the map from your city or location and see movement details for azimuth, elevation, latitude, longitude, range, height, and movement on the map or in text.







IsCatalogInMostPopularTable: catalog: 46028, numindb: 27
Update: records affected: 1



GetName: 46028 STARLINK-1523

Hit Count: updated at: Tue, 01 Dec 2020 20:23:05 GMT